CW8690 Weather Reports


Display with metric or nautical units.
time (UTC)temp
F
wind
direction
speed
MPH
gust
MPH
rain 1hr
in
rain 24hr
in
rain mn
in
humidity
%
barometer
mb
20260505181125 86 185 9.0 16.0 0.00 0.00 0.00 77 1005.7
20260505175626 86 188 10.0 17.0 0.00 0.00 0.00 75 1005.9
20260505174125 86 119 8.0 20.0 0.00 0.00 0.00 76 1006.0
20260505172705 85 157 9.0 17.0 0.00 0.00 0.00 77 1006.1
20260505171117 85 102 8.0 18.0 0.00 0.00 0.00 78 1006.3
20260505165637 84 154 6.0 13.0 0.00 0.00 0.00 79 1006.4
20260505164148 84 169 7.0 14.0 0.00 0.00 0.00 80 1006.6
20260505162626 84 126 7.0 16.0 0.00 0.00 0.00 80 1006.8
20260505161147 83 175 9.0 16.0 0.00 0.00 0.00 80 1006.9
20260505152625 82 140 7.0 19.0 0.00 0.00 0.00 83 1006.9
20260505151124 82 177 7.0 19.0 0.00 0.00 0.00 83 1006.9
20260505124122 77 115 6.0 9.0 0.00 0.00 0.00 95 1006.5
20260505122618 76 175 4.0 10.0 0.00 0.00 0.00 95 1006.6
20260505121134 76 152 5.0 9.0 0.00 0.00 0.00 95 1006.5
20260505115655 76 145 5.0 10.0 0.00 0.00 0.00 95 1006.4
20260505114125 76 149 4.0 9.0 0.00 0.00 0.00 95 1006.6
20260505112616 76 173 4.0 9.0 0.00 0.00 0.00 95 1006.6
20260505111120 76 113 4.0 11.0 0.00 0.00 0.00 95 1006.5
20260505101122 76 113 5.0 10.0 0.00 0.00 0.00 95 1006.5
20260505095643 76 144 7.0 11.0 0.00 0.00 0.00 95 1006.5
20260505094122 76 153 6.0 12.0 0.00 0.00 0.00 94 1006.6
20260505092619 76 161 5.0 12.0 0.00 0.00 0.00 94 1006.7
20260505091118 76 142 5.0 8.0 0.00 0.00 0.00 95 1006.8
20260505085619 76 148 4.0 8.0 0.00 0.00 0.00 95 1007.0
20260505084136 75 142 5.0 9.0 0.00 0.00 0.00 95 1007.1
20260505082632 75 142 5.0 12.0 0.00 0.00 0.00 95 1007.2
20260505081123 75 120 5.0 8.0 0.00 0.00 0.00 95 1007.0
20260505075623 75 152 4.0 10.0 0.00 0.00 0.00 94 1007.0
20260505074123 74 156 4.0 9.0 0.00 0.00 0.00 94 1007.3
20260505072624 74 150 3.0 8.0 0.00 0.00 0.00 94 1007.6
20260505071122 74 136 3.0 5.0 0.00 0.00 0.00 93 1007.7
20260505065625 74 140 3.0 8.0 0.00 0.00 0.00 93 1007.9
20260505064123 74 150 3.0 10.0 0.00 0.00 0.00 93 1007.8
20260505062622 75 142 4.0 8.0 0.00 0.00 0.00 93 1008.5
20260505061124 74 142 3.0 8.0 0.00 0.00 0.00 92 1008.3
20260505055623 75 163 4.0 8.0 0.00 0.00 0.00 92 1008.6
20260505054142 75 122 4.0 9.0 0.00 0.00 0.00 92 1008.6
20260505052620 75 148 4.0 7.0 0.00 0.00 0.00 92 1009.0
20260505051119 75 128 4.0 8.0 0.00 0.00 0.00 92 1009.1
20260505041146 75 126 3.0 8.0 0.00 0.00 0.00 91 1009.3
20260505035628 75 123 4.0 8.0 0.00 0.00 0.00 91 1009.5
20260505034128 75 140 4.0 7.0 0.00 0.00 0.00 90 1009.6
20260505032625 75 138 4.0 8.0 0.00 0.00 0.00 90 1009.5
20260505031140 75 148 4.0 9.0 0.00 0.00 0.00 89 1009.2
20260505025640 75 130 4.0 8.0 0.00 0.00 0.00 89 1009.3
20260505024121 75 144 5.0 8.0 0.00 0.00 0.00 89 1009.1
20260505022623 75 63 6.0 9.0 0.00 0.00 0.00 88 1008.9
20260505021143 75 121 7.0 10.0 0.00 0.00 0.00 87 1008.6
20260505015619 75 131 5.0 9.0 0.00 0.00 0.00 86 1008.6
20260505014120 76 113 7.0 11.0 0.00 0.00 0.00 86 1008.7
20260505012643 76 140 6.0 13.0 0.00 0.00 0.00 85 1008.6
20260505011120 76 119 6.0 17.0 0.00 0.00 0.00 84 1008.5
20260505005642 77 141 8.0 14.0 0.00 0.00 0.00 83 1008.7
20260505004143 77 80 6.0 14.0 0.00 0.00 0.00 82 1008.7
20260505002621 78 125 7.0 17.0 0.00 0.00 0.00 82 1008.7
20260505001121 78 126 7.0 15.0 0.00 0.00 0.00 80 1008.8
20260504235619 78 102 8.0 14.0 0.00 0.00 0.00 79 1008.9
20260504234120 79 111 8.0 16.0 0.00 0.00 0.00 79 1009.0
20260504232644 80 135 8.0 15.0 0.00 0.00 0.00 78 1008.9
20260504231122 80 134 8.0 15.0 0.00 0.00 0.00 78 1009.1
20260504225626 80 105 8.0 17.0 0.00 0.00 0.00 78 1009.1
20260504224124 80 182 12.0 20.0 0.00 0.00 0.00 76 1009.0
20260504222626 80 149 8.0 14.0 0.00 0.00 0.00 76 1008.9
20260504221125 81 113 9.0 16.0 0.00 0.00 0.00 76 1009.0
20260504215624 81 108 11.0 17.0 0.00 0.00 0.00 74 1008.9
20260504214142 82 95 9.0 20.0 0.00 0.00 0.00 74 1009.2
20260504212621 82 111 8.0 15.0 0.00 0.00 0.00 75 1009.4
20260504211118 81 131 9.0 15.0 0.00 0.00 0.00 74 1009.8
20260504205621 81 125 8.0 15.0 0.00 0.00 0.00 75 1009.8
20260504204140 81 151 10.0 17.0 0.00 0.00 0.00 74 1009.9
20260504202635 82 95 7.0 16.0 0.00 0.00 0.00 74 1009.9
20260504201124 82 96 5.0 14.0 0.00 0.00 0.00 74 1010.1